Location: Unspecified
(0.0000°N, 0.0000°E)
Time: 19:06:38
(UTC+00:00)

FORMOSAT 3A - Visible Passes

Search period start: 17 May 2026 00:00
Search period end: 27 May 2026 00:00
Orbit: 751 x 823 km, 72.0° (Epoch: 17 May)

Date Brightness Start Highest point End Pass type
(mag) Time Alt. Az. Time Alt. Az. Time Alt. Az.
18 May 9.7 20:26:01 10° N 20:26:07 11° N 20:26:07 11° N visible
19 May 9.3 19:55:18 10° NNE 19:55:53 12° NNE 19:55:53 12° NNE visible
20 May 9.2 19:25:20 10° NE 19:25:44 11° NE 19:25:44 11° NE visible
20 May 9.8 21:05:48 10° NW 21:06:26 13° NW 21:06:26 13° NW visible
21 May 8.9 20:33:56 10° NNW 20:36:20 26° NW 20:36:20 26° NW visible
22 May 7.7 20:02:24 10° NNW 20:06:17 48° N 20:06:17 48° N visible
23 May 7.3 19:31:12 10° N 19:36:17 48° ENE 19:36:17 48° ENE visible
24 May 8.0 19:00:22 10° NNE 19:04:58 28° ENE 19:06:21 25° E visible
24 May 9.4 20:43:53 10° WNW 20:47:05 18° W 20:47:05 18° W visible
25 May 8.6 18:30:07 10° NE 18:33:31 17° ENE 18:36:28 11° ESE visible
25 May 8.6 20:11:20 10° NW 20:15:58 29° WSW 20:17:12 27° SW visible
26 May 7.8 19:39:20 10° NNW 19:44:33 50° WSW 19:47:22 25° SSW visible
